| time (UTC) | temp F | wind direction | speed MPH | gust MPH | rain 1hr in | rain 24hr in | rain mn in | humidity % | barometer mb |
| 20260510230006 | 87 | 241 | 0.0 | 4.0 | 0.00 | 0.00 | 0.00 | 43 | 1004.4 |
| 20260510224505 | 87 | 227 | 0.0 | 4.0 | 0.00 | 0.00 | 0.00 | 39 | 1004.6 |
| 20260510223100 | 87 | 232 | 0.0 | 5.0 | 0.00 | 0.00 | 0.00 | 40 | 1004.6 |
| 20260510221601 | 87 | 245 | 1.0 | 4.0 | 0.00 | 0.00 | 0.00 | 40 | 1004.8 |
| 20260510220058 | 87 | 155 | 1.0 | 5.0 | 0.00 | 0.00 | 0.00 | 42 | 1005.0 |
| 20260510214556 | 86 | 227 | 0.0 | 7.0 | 0.00 | 0.00 | 0.00 | 43 | 1005.2 |
| 20260510213059 | 86 | 200 | 0.0 | 4.0 | 0.00 | 0.00 | 0.00 | 42 | 1005.3 |
| 20260510211551 | 85 | 229 | 1.0 | 4.0 | 0.00 | 0.00 | 0.00 | 41 | 1005.4 |
| 20260510210050 | 84 | 222 | 0.0 | 5.0 | 0.00 | 0.00 | 0.00 | 41 | 1005.6 |
| 20260510204553 | 84 | 140 | 0.0 | 4.0 | 0.00 | 0.00 | 0.00 | 43 | 1005.5 |
| 20260510203044 | 83 | 227 | 2.0 | 5.0 | 0.00 | 0.00 | 0.00 | 40 | 1005.7 |
| 20260510201544 | 83 | 246 | 1.0 | 6.0 | 0.00 | 0.00 | 0.00 | 42 | 1005.8 |
| 20260510200041 | 83 | 127 | 1.0 | 4.0 | 0.00 | 0.00 | 0.00 | 42 | 1005.9 |
| 20260510194537 | 82 | 122 | 2.0 | 6.0 | 0.00 | 0.00 | 0.00 | 44 | 1005.9 |
| 20260510193034 | 82 | 344 | 0.0 | 4.0 | 0.00 | 0.00 | 0.00 | 47 | 1005.9 |
| 20260510191532 | 81 | 186 | 1.0 | 6.0 | 0.00 | 0.00 | 0.00 | 49 | 1006.0 |
| 20260510190038 | 81 | 223 | 0.0 | 7.0 | 0.00 | 0.00 | 0.00 | 56 | 1006.0 |
| 20260510184527 | 80 | 174 | 0.0 | 2.0 | 0.00 | 0.00 | 0.00 | 52 | 1006.3 |
| 20260510183032 | 80 | 232 | 0.0 | 4.0 | 0.00 | 0.00 | 0.00 | 54 | 1006.3 |
| 20260510181538 | 79 | 261 | 0.0 | 4.0 | 0.00 | 0.00 | 0.00 | 58 | 1006.3 |
| 20260510180027 | 77 | 226 | 1.0 | 5.0 | 0.00 | 0.00 | 0.00 | 58 | 1006.3 |
| 20260510174514 | 77 | 158 | 0.0 | 4.0 | 0.00 | 0.00 | 0.00 | 61 | 1006.4 |
| 20260510173018 | 75 | 164 | 0.0 | 3.0 | 0.00 | 0.00 | 0.00 | 66 | 1006.2 |
| 20260510171505 | 73 | 88 | 0.0 | 2.0 | 0.00 | 0.00 | 0.00 | 70 | 1006.1 |
| 20260510170000 | 71 | 214 | 0.0 | 4.0 | 0.00 | 0.00 | 0.00 | 74 | 1006.0 |
| 20260510164611 | 70 | 243 | 0.0 | 3.0 | 0.00 | 0.00 | 0.00 | 83 | 1006.0 |
| 20260510163053 | 66 | 294 | 0.0 | 3.0 | 0.00 | 0.00 | 0.00 | 92 | 1005.8 |
| 20260510161548 | 64 | 338 | 0.0 | 0.0 | 0.00 | 0.00 | 0.00 | 95 | 1005.9 |
| 20260510160045 | 62 | 338 | 0.0 | 0.0 | 0.00 | 0.00 | 0.00 | 95 | 1005.8 |
| 20260510154542 | 61 | 338 | 0.0 | 0.0 | 0.00 | 0.00 | 0.00 | 95 | 1005.9 |
| 20260510153045 | 59 | 338 | 0.0 | 0.0 | 0.00 | 0.00 | 0.00 | 95 | 1005.9 |
| 20260510151536 | 58 | 338 | 0.0 | 0.0 | 0.00 | 0.00 | 0.00 | 95 | 1005.8 |
| 20260510150035 | 57 | 338 | 0.0 | 0.0 | 0.00 | 0.00 | 0.00 | 94 | 1005.8 |
| 20260510144544 | 56 | 338 | 0.0 | 0.0 | 0.00 | 0.00 | 0.00 | 94 | 1005.7 |
| 20260510143031 | 55 | 338 | 0.0 | 0.0 | 0.00 | 0.00 | 0.00 | 94 | 1005.6 |
| 20260510141530 | 55 | 338 | 0.0 | 0.0 | 0.00 | 0.00 | 0.00 | 93 | 1005.6 |
| 20260510140030 | 54 | 338 | 0.0 | 0.0 | 0.00 | 0.00 | 0.00 | 93 | 1005.4 |
| 20260510134529 | 54 | 338 | 0.0 | 0.0 | 0.00 | 0.00 | 0.00 | 93 | 1005.2 |
| 20260510133028 | 54 | 338 | 0.0 | 0.0 | 0.00 | 0.00 | 0.00 | 93 | 1005.1 |
| 20260510131527 | 54 | 338 | 0.0 | 0.0 | 0.00 | 0.00 | 0.00 | 93 | 1005.1 |
| 20260510130026 | 54 | 338 | 0.0 | 0.0 | 0.00 | 0.00 | 0.00 | 92 | 1005.1 |
| 20260510124523 | 54 | 338 | 0.0 | 0.0 | 0.00 | 0.00 | 0.00 | 92 | 1005.1 |
| 20260510123022 | 55 | 338 | 0.0 | 0.0 | 0.00 | 0.00 | 0.00 | 92 | 1005.1 |
| 20260510121521 | 55 | 338 | 0.0 | 0.0 | 0.00 | 0.00 | 0.00 | 92 | 1005.2 |
| 20260510120020 | 55 | 338 | 0.0 | 0.0 | 0.00 | 0.00 | 0.00 | 92 | 1005.2 |
| 20260510114519 | 55 | 338 | 0.0 | 0.0 | 0.00 | 0.00 | 0.00 | 92 | 1005.2 |
| 20260510113020 | 55 | 338 | 0.0 | 0.0 | 0.00 | 0.00 | 0.00 | 92 | 1005.2 |
| 20260510111516 | 56 | 338 | 0.0 | 0.0 | 0.00 | 0.00 | 0.00 | 91 | 1005.1 |
| 20260510110023 | 56 | 338 | 0.0 | 0.0 | 0.00 | 0.00 | 0.00 | 91 | 1005.1 |
| 20260510104514 | 56 | 338 | 0.0 | 0.0 | 0.00 | 0.00 | 0.00 | 91 | 1005.2 |
| 20260510103011 | 56 | 338 | 0.0 | 0.0 | 0.00 | 0.00 | 0.00 | 91 | 1005.2 |
| 20260510101510 | 56 | 338 | 0.0 | 0.0 | 0.00 | 0.00 | 0.00 | 91 | 1005.2 |
| 20260510100011 | 56 | 338 | 0.0 | 0.0 | 0.00 | 0.00 | 0.00 | 91 | 1005.4 |
| 20260510094507 | 56 | 338 | 0.0 | 0.0 | 0.00 | 0.00 | 0.00 | 90 | 1005.3 |
| 20260510093008 | 57 | 338 | 0.0 | 0.0 | 0.00 | 0.00 | 0.00 | 90 | 1005.3 |
| 20260510091505 | 57 | 338 | 0.0 | 0.0 | 0.00 | 0.00 | 0.00 | 90 | 1005.3 |
| 20260510090003 | 57 | 338 | 0.0 | 0.0 | 0.00 | 0.00 | 0.00 | 89 | 1005.3 |
| 20260510084501 | 57 | 338 | 0.0 | 0.0 | 0.00 | 0.00 | 0.00 | 89 | 1005.4 |
| 20260510083105 | 58 | 338 | 0.0 | 0.0 | 0.00 | 0.00 | 0.00 | 89 | 1005.5 |
| 20260510081557 | 58 | 338 | 0.0 | 0.0 | 0.00 | 0.00 | 0.00 | 89 | 1005.4 |
| 20260510080059 | 58 | 338 | 0.0 | 0.0 | 0.00 | 0.00 | 0.00 | 88 | 1005.4 |
| 20260510074616 | 58 | 338 | 0.0 | 0.0 | 0.00 | 0.00 | 0.00 | 88 | 1005.4 |
| 20260510073052 | 59 | 338 | 0.0 | 0.0 | 0.00 | 0.00 | 0.00 | 88 | 1005.4 |
| 20260510071557 | 59 | 338 | 0.0 | 0.0 | 0.00 | 0.00 | 0.00 | 87 | 1005.4 |
| 20260510070047 | 59 | 338 | 0.0 | 0.0 | 0.00 | 0.00 | 0.00 | 87 | 1005.4 |
| 20260510064605 | 60 | 338 | 0.0 | 0.0 | 0.00 | 0.00 | 0.00 | 86 | 1005.4 |
| 20260510063051 | 60 | 338 | 0.0 | 0.0 | 0.00 | 0.00 | 0.00 | 86 | 1005.3 |
| 20260510061545 | 60 | 338 | 0.0 | 0.0 | 0.00 | 0.00 | 0.00 | 85 | 1005.3 |
| 20260510060053 | 61 | 338 | 0.0 | 0.0 | 0.00 | 0.00 | 0.00 | 85 | 1005.3 |
| 20260510054545 | 61 | 338 | 0.0 | 0.0 | 0.00 | 0.00 | 0.00 | 84 | 1005.3 |
| 20260510053044 | 62 | 338 | 0.0 | 0.0 | 0.00 | 0.00 | 0.00 | 84 | 1005.2 |
| 20260510051553 | 62 | 338 | 0.0 | 0.0 | 0.00 | 0.00 | 0.00 | 83 | 1005.3 |
| 20260510050043 | 63 | 338 | 0.0 | 0.0 | 0.00 | 0.00 | 0.00 | 82 | 1005.3 |
| 20260510044543 | 63 | 338 | 0.0 | 0.0 | 0.00 | 0.00 | 0.00 | 82 | 1005.1 |
| 20260510043048 | 64 | 338 | 0.0 | 0.0 | 0.00 | 0.00 | 0.00 | 81 | 1005.1 |
| 20260510041557 | 65 | 338 | 0.0 | 0.0 | 0.00 | 0.00 | 0.00 | 79 | 1005.2 |
| 20260510040044 | 65 | 338 | 0.0 | 2.0 | 0.00 | 0.00 | 0.00 | 78 | 1005.1 |
| 20260510034540 | 66 | 338 | 0.0 | 1.0 | 0.00 | 0.00 | 0.00 | 77 | 1005.0 |
| 20260510033039 | 67 | 338 | 0.0 | 0.0 | 0.00 | 0.00 | 0.00 | 74 | 1004.7 |
| 20260510031539 | 69 | 338 | 0.0 | 0.0 | 0.00 | 0.00 | 0.00 | 72 | 1004.7 |
| 20260510030046 | 71 | 338 | 0.0 | 0.0 | 0.00 | 0.00 | 0.00 | 69 | 1004.5 |
| 20260510024550 | 73 | 338 | 0.0 | 0.0 | 0.00 | 0.00 | 0.00 | 66 | 1004.5 |
| 20260510023036 | 75 | 338 | 0.0 | 0.0 | 0.00 | 0.00 | 0.00 | 61 | 1004.5 |
| 20260510021536 | 77 | 338 | 0.0 | 1.0 | 0.00 | 0.00 | 0.00 | 56 | 1004.4 |
| 20260510020035 | 78 | 240 | 0.0 | 2.0 | 0.00 | 0.00 | 0.00 | 52 | 1004.4 |
| 20260510014635 | 79 | 240 | 0.0 | 4.0 | 0.00 | 0.00 | 0.00 | 49 | 1004.3 |
| 20260510013034 | 80 | 246 | 0.0 | 5.0 | 0.00 | 0.00 | 0.00 | 45 | 1004.3 |
| 20260510011537 | 81 | 246 | 0.0 | 5.0 | 0.00 | 0.00 | 0.00 | 42 | 1004.3 |
| 20260510010043 | 82 | 244 | 1.0 | 5.0 | 0.00 | 0.00 | 0.00 | 42 | 1004.3 |
| 20260510004531 | 83 | 248 | 0.0 | 2.0 | 0.00 | 0.00 | 0.00 | 44 | 1004.4 |
| 20260510003032 | 83 | 227 | 0.0 | 4.0 | 0.00 | 0.00 | 0.00 | 42 | 1004.3 |
| 20260510001528 | 83 | 248 | 0.0 | 5.0 | 0.00 | 0.00 | 0.00 | 46 | 1004.3 |
| 20260510000027 | 82 | 234 | 0.0 | 5.0 | 0.00 | 0.00 | 0.00 | 46 | 1004.3 |
| 20260509234526 | 83 | 308 | 1.0 | 4.0 | 0.00 | 0.00 | 0.00 | 47 | 1004.4 |
| 20260509233025 | 83 | 226 | 2.0 | 7.0 | 0.00 | 0.00 | 0.00 | 45 | 1004.5 |
| 20260509231530 | 83 | 248 | 1.0 | 4.0 | 0.00 | 0.00 | 0.00 | 46 | 1004.5 |